When you browse on this site, cookies collect data to enhance your experience and personalize the content and advertising you see.
Visit our Privacy Policy to learn more. By continuing to use the site, you agree to this use of cookies and data.

Stündliche Wetter Benguela

Heute, 6 Juli, Montag

Zeit Temperatur Niederschläge Wind Luftdruck Luftfeuchtigkeit
00:00 +21°C° 0 mm 1 m/S 760 mmHg 88%
01:00 +20°C° 0 mm 1 m/S 761 mmHg 85%
02:00 +21°C° 0 mm 1 m/S 760 mmHg 81%
03:00 +21°C° 0 mm 1 m/S 760 mmHg 77%
04:00 +20°C° 0 mm 2 m/S 760 mmHg 73%
05:00 +20°C° 0 mm 2 m/S 760 mmHg 69%
06:00 +21°C° 0 mm 1 m/S 760 mmHg 66%
07:00 +22°C° 0 mm 1 m/S 760 mmHg 60%
08:00 +25°C° 0 mm 1 m/S 761 mmHg 50%
09:00 +28°C° 0 mm 2 m/S 761 mmHg 41%
10:00 +30°C° 0 mm 2 m/S 761 mmHg 31%
11:00 +31°C° 0 mm 3 m/S 760 mmHg 33%
12:00 +33°C° 0 mm 3 m/S 759 mmHg 34%
13:00 +33°C° 0 mm 4 m/S 759 mmHg 43%
14:00 +32°C° 0 mm 4 m/S 758 mmHg 47%
15:00 +30°C° 0 mm 3 m/S 758 mmHg 52%
16:00 +29°C° 0 mm 3 m/S 758 mmHg 57%
17:00 +27°C° 0 mm 2 m/S 758 mmHg 68%
18:00 +24°C° 0 mm 2 m/S 758 mmHg 80%
19:00 +22°C° 0 mm 1 m/S 759 mmHg 91%
20:00 +22°C° 0 mm 1 m/S 759 mmHg 91%
21:00 +20°C° 0 mm 2 m/S 760 mmHg 90%
22:00 +20°C° 0 mm 2 m/S 761 mmHg 90%
23:00 +20°C° 0 mm 2 m/S 760 mmHg 87%

Morgen, 7 Juli, Dienstag

Zeit Temperatur Niederschläge Wind Luftdruck Luftfeuchtigkeit
00:00 +20°C° 0 mm 2 m/S 760 mmHg 85%
01:00 +20°C° 0 mm 2 m/S 760 mmHg 82%
02:00 +19°C° 0 mm 2 m/S 759 mmHg 81%
03:00 +19°C° 0 mm 2 m/S 759 mmHg 79%
04:00 +19°C° 0 mm 2 m/S 759 mmHg 78%
05:00 +19°C° 0 mm 2 m/S 759 mmHg 74%
06:00 +20°C° 0 mm 2 m/S 759 mmHg 70%
07:00 +20°C° 0 mm 2 m/S 759 mmHg 67%
08:00 +24°C° 0 mm 2 m/S 759 mmHg 53%
09:00 +28°C° 0 mm 2 m/S 759 mmHg 39%
10:00 +32°C° 0 mm 2 m/S 759 mmHg 26%
11:00 +32°C° 0 mm 2 m/S 758 mmHg 28%
12:00 +34°C° 0 mm 3 m/S 758 mmHg 31%
13:00 +34°C° 0 mm 4 m/S 757 mmHg 33%
14:00 +33°C° 0 mm 3 m/S 756 mmHg 37%
15:00 +31°C° 0 mm 3 m/S 756 mmHg 42%
16:00 +30°C° 0 mm 3 m/S 755 mmHg 46%
17:00 +27°C° 0 mm 2 m/S 756 mmHg 60%
18:00 +24°C° 0 mm 1 m/S 757 mmHg 74%
19:00 +19°C° 0 mm 0 m/S 757 mmHg 88%
20:00 +21°C° 0 mm 1 m/S 758 mmHg 87%
21:00 +21°C° 0 mm 1 m/S 758 mmHg 87%
22:00 +21°C° 0 mm 1 m/S 758 mmHg 86%
23:00 +21°C° 0 mm 1 m/S 758 mmHg 84%

übermorgen, 8 Juli, Mittwoch

Zeit Temperatur Niederschläge Wind Luftdruck Luftfeuchtigkeit
00:00 +20°C° 0 mm 1 m/S 758 mmHg 82%
01:00 +18°C° 0 mm 0 m/S 758 mmHg 80%
02:00 +19°C° 0 mm 1 m/S 758 mmHg 79%
03:00 +19°C° 0 mm 1 m/S 758 mmHg 79%
04:00 +19°C° 0 mm 1 m/S 757 mmHg 78%
05:00 +19°C° 0 mm 1 m/S 758 mmHg 74%
06:00 +19°C° 0 mm 2 m/S 759 mmHg 71%
07:00 +19°C° 0 mm 2 m/S 759 mmHg 67%
08:00 +23°C° 0 mm 2 m/S 759 mmHg 56%
09:00 +27°C° 0 mm 2 m/S 759 mmHg 45%
10:00 +30°C° 0 mm 3 m/S 759 mmHg 33%
11:00 +31°C° 0 mm 3 m/S 758 mmHg 38%
12:00 +31°C° 0 mm 3 m/S 758 mmHg 42%
13:00 +33°C° 0 mm 4 m/S 757 mmHg 46%
14:00 +31°C° 0 mm 3 m/S 757 mmHg 48%
15:00 +30°C° 0 mm 3 m/S 757 mmHg 51%
16:00 +30°C° 0 mm 2 m/S 756 mmHg 54%
17:00 +27°C° 0 mm 2 m/S 757 mmHg 66%
18:00 +24°C° 0 mm 2 m/S 757 mmHg 78%
19:00 +21°C° 0 mm 1 m/S 758 mmHg 90%
20:00 +21°C° 0 mm 1 m/S 758 mmHg 89%
21:00 +20°C° 0 mm 1 m/S 759 mmHg 88%
22:00 +20°C° 0 mm 1 m/S 759 mmHg 88%
23:00 +20°C° 0 mm 1 m/S 759 mmHg 85%

9 Juli, Donnerstag

Zeit Temperatur Niederschläge Wind Luftdruck Luftfeuchtigkeit
00:00 +20°C° 0 mm 1 m/S 759 mmHg 82%
01:00 +19°C° 0 mm 2 m/S 759 mmHg 80%
02:00 +19°C° 0 mm 2 m/S 758 mmHg 78%
03:00 +18°C° 0 mm 2 m/S 758 mmHg 76%
04:00 +18°C° 0 mm 2 m/S 758 mmHg 75%
05:00 +19°C° 0 mm 1 m/S 759 mmHg 71%
06:00 +19°C° 0 mm 1 m/S 759 mmHg 67%
07:00 +20°C° 0 mm 1 m/S 759 mmHg 63%
08:00 +23°C° 0 mm 1 m/S 759 mmHg 53%
09:00 +26°C° 0 mm 1 m/S 759 mmHg 43%
10:00 +30°C° 0 mm 1 m/S 760 mmHg 33%
11:00 +31°C° 0 mm 2 m/S 759 mmHg 35%
12:00 +33°C° 0 mm 3 m/S 758 mmHg 36%
13:00 +33°C° 0 mm 4 m/S 758 mmHg 38%
14:00 +33°C° 0 mm 3 m/S 757 mmHg 42%
15:00 +31°C° 0 mm 3 m/S 757 mmHg 46%
16:00 +30°C° 0 mm 3 m/S 757 mmHg 49%
17:00 +27°C° 0 mm 3 m/S 757 mmHg 63%
18:00 +24°C° 0 mm 2 m/S 758 mmHg 76%
19:00 +21°C° 0 mm 1 m/S 759 mmHg 90%
20:00 +21°C° 0 mm 1 m/S 759 mmHg 91%
21:00 +20°C° 0 mm 1 m/S 759 mmHg 92%
22:00 +20°C° 0 mm 1 m/S 760 mmHg 93%
23:00 +19°C° 0 mm 1 m/S 760 mmHg 91%

10 Juli, Freitag

Zeit Temperatur Niederschläge Wind Luftdruck Luftfeuchtigkeit
00:00 +19°C° 0 mm 1 m/S 759 mmHg 90%
01:00 +19°C° 0 mm 1 m/S 759 mmHg 88%
02:00 +19°C° 0 mm 1 m/S 759 mmHg 86%
03:00 +19°C° 0 mm 1 m/S 759 mmHg 84%
04:00 +19°C° 0 mm 1 m/S 759 mmHg 81%
05:00 +19°C° 0 mm 1 m/S 759 mmHg 78%
06:00 +19°C° 0 mm 1 m/S 759 mmHg 75%
07:00 +20°C° 0 mm 1 m/S 760 mmHg 71%
08:00 +23°C° 0 mm 1 m/S 760 mmHg 59%
09:00 +26°C° 0 mm 1 m/S 759 mmHg 47%
10:00 +30°C° 0 mm 1 m/S 759 mmHg 35%
11:00 +31°C° 0 mm 2 m/S 759 mmHg 36%
12:00 +31°C° 0 mm 3 m/S 758 mmHg 36%
13:00 +33°C° 0 mm 3 m/S 758 mmHg 37%
14:00 +31°C° 0 mm 3 m/S 757 mmHg 40%
15:00 +32°C° 0 mm 4 m/S 757 mmHg 42%
16:00 +30°C° 0 mm 4 m/S 756 mmHg 44%
17:00 +27°C° 0 mm 3 m/S 757 mmHg 58%
18:00 +24°C° 0 mm 2 m/S 757 mmHg 72%
19:00 +20°C° 0 mm 2 m/S 758 mmHg 85%
20:00 +19°C° 0 mm 2 m/S 758 mmHg 86%
21:00 +20°C° 0 mm 1 m/S 759 mmHg 86%
22:00 +20°C° 0 mm 1 m/S 759 mmHg 87%
23:00 +20°C° 0 mm 1 m/S 759 mmHg 86%

11 Juli, Samstag

Zeit Temperatur Niederschläge Wind Luftdruck Luftfeuchtigkeit
00:00 +20°C° 0 mm 1 m/S 759 mmHg 85%
01:00 +18°C° 0 mm 2 m/S 758 mmHg 84%
02:00 +18°C° 0 mm 2 m/S 758 mmHg 83%
03:00 +18°C° 0 mm 2 m/S 758 mmHg 82%
04:00 +18°C° 0 mm 2 m/S 758 mmHg 82%
05:00 +18°C° 0 mm 2 m/S 759 mmHg 80%
06:00 +18°C° 0 mm 2 m/S 759 mmHg 78%
07:00 +18°C° 0 mm 2 m/S 760 mmHg 77%
08:00 +21°C° 0 mm 3 m/S 759 mmHg 68%
09:00 +25°C° 0 mm 3 m/S 759 mmHg 59%
10:00 +28°C° 0 mm 3 m/S 759 mmHg 50%
11:00 +29°C° 0 mm 4 m/S 759 mmHg 50%
12:00 +29°C° 0 mm 4 m/S 758 mmHg 50%
13:00 +30°C° 0 mm 5 m/S 757 mmHg 50%
14:00 +29°C° 0 mm 4 m/S 757 mmHg 53%
15:00 +28°C° 0 mm 4 m/S 757 mmHg 56%
16:00 +27°C° 0 mm 3 m/S 757 mmHg 59%
17:00 +25°C° 0 mm 2 m/S 757 mmHg 69%
18:00 +23°C° 0 mm 2 m/S 758 mmHg 79%
19:00 +21°C° 0 mm 1 m/S 759 mmHg 89%
20:00 +21°C° 0 mm 1 m/S 759 mmHg 90%
21:00 +20°C° 0 mm 1 m/S 760 mmHg 91%
22:00 +19°C° 0 mm 2 m/S 760 mmHg 92%
23:00 +19°C° 0 mm 2 m/S 760 mmHg 91%
Mehr zeigen